Hauptseite
METAR-TAF:

METAR-TAF

Flughäfen :

Dewar Lakes, Nunavut, Kanada

Breite: 68-39N, Länge: 071-10W, Höhe: 518 m

Beobachtung

Neuester Wetterbericht von vor 18 Minuten, um 03:34 UTC
Wind 7 kt aus Süd
Temperatur -4°C
Luftfeuchtigkeit 100%
Luftdruck 1018 hPa
Leicht bewölkt in der Höhe von 300 ft
Geschlossene Wolkendecke in der Höhe von 2200 ft

METAR: CWUW 190334Z AUTO 18007KT ////SM //// FEW003 OVC022 M04/M04 A3005

Zeit: 23:52 (03:52 UTC)


TAF: fehlend

Wetterbeobachtungen und Prognosen von mehr als 4000 Flughäfen (METAR und TAF Bericht).

Die verfügbaren Stationen werden durch gelbe und rote Markierungen auf der Karte dargestellt.

Führen Sie die Maus auf sie, um den Namen der Station zu sehen.

Darauf klicken, um die Beobachtung von Wetterbeobachtungen und Prognosen zu sehen.

Um die Karte zu ändern : klicken Sie auf den grünen Tasten mit einem schwarzen Kreuz Zum Vergrößern, auf den grünen Button mit einem Gedankenstrich zu verkleinern, oder auf die grünen Pfeile für benachbarte Karten.


METAR-TAF: